This is the latest recevied weather packets stored in our database for station/object DH4SBM. If no packets are shown the sender has not sent any weather packets the latest 10 day(s).
| Time | Temp. | Humidity | Pressure | Rain* | Wind** | Luminosity | Snow |
|---|---|---|---|---|---|---|---|
| 1777994819 | 13.89° C | 88% | 1008.8 hPa | 0.51 mm | - | 104 W/m² | - |
| 1777994219 | 13.89° C | 88% | 1008.8 hPa | 0.51 mm | - | 70 W/m² | - |
| 1777993619 | 13.89° C | 89% | 1008.8 hPa | 0.76 mm | - | 63 W/m² | - |
| 1777993019 | 13.89° C | 89% | 1008.8 hPa | 1.02 mm | - | 63 W/m² | - |
| 1777992419 | 13.89° C | 89% | 1009.1 hPa | 1.78 mm | - | 67 W/m² | - |
| 1777991819 | 13.89° C | 90% | 1009.2 hPa | 2.29 mm | - | 74 W/m² | - |
| 1777991219 | 13.89° C | 90% | 1009.3 hPa | 2.29 mm | - | 72 W/m² | - |
| 1777990619 | 13.89° C | 90% | 1009.4 hPa | 2.54 mm | - | 62 W/m² | - |
| 1777990019 | 13.89° C | 90% | 1009.6 hPa | 2.29 mm | - | 62 W/m² | - |
| 1777989419 | 14.44° C | 90% | 1009.6 hPa | 2.03 mm | - | 58 W/m² | - |
| 1777988819 | 14.44° C | 89% | 1009.5 hPa | 1.27 mm | - | 35 W/m² | - |
| 1777988219 | 15° C | 88% | 1009.6 hPa | 0.76 mm | - | 23 W/m² | - |
| 1777987619 | 15° C | 86% | 1009.5 hPa | 0.51 mm | - | 21 W/m² | - |
| 1777987019 | 15.56° C | 82% | 1009.4 hPa | 0 mm | - | 40 W/m² | - |
| 1777986419 | 16.67° C | 77% | 1008.9 hPa | 0 mm | - | 83 W/m² | - |
| 1777985819 | 19.44° C | 67% | 1008.6 hPa | 0 mm | - | 63 W/m² | - |
| 1777985217 | 20° C | 62% | 1008.4 hPa | 0 mm | - | 130 W/m² | - |
| 1777984539 | 20° C | 62% | 1008.4 hPa | 0 mm | - | 153 W/m² | - |
| 1777983939 | 20° C | 61% | 1008.4 hPa | 0 mm | - | 190 W/m² | - |
| 1777983340 | 20° C | 63% | 1008.4 hPa | 0 mm | - | 202 W/m² | - |
| 1777982740 | 19.44° C | 64% | 1008.6 hPa | 0 mm | - | 204 W/m² | - |
| 1777982139 | 19.44° C | 64% | 1008.5 hPa | 0 mm | - | 193 W/m² | - |
| 1777981539 | 19.44° C | 65% | 1008.5 hPa | 0 mm | - | 190 W/m² | - |
| 1777980939 | 19.44° C | 65% | 1008.4 hPa | 0 mm | - | 197 W/m² | - |
| 1777980339 | 19.44° C | 65% | 1008.4 hPa | 0 mm | - | 206 W/m² | - |
* Rain latest hour (hover to see other rain measurements)
** Current wind speed in m/s (hover to see current wind gust speed)